Location: NJAA Observatory
(40.6819°N, 74.8979°W)
Time: 18:17:04
(UTC-05:00)

S-56A Canister/Altair - Visible Passes

Search period start: 24 January 2017 00:00
Search period end: 03 February 2017 00:00
Orbit: 639 x 2495 km, 38.9° (Epoch: 24 January)

Date Brightness Start Highest point End Pass type
(mag) Time Alt. Az. Time Alt. Az. Time Alt. Az.
24 Jan 10.4 02:24:35 45° E 02:24:35 45° E 02:32:34 10° E visible
24 Jan 9.6 04:22:01 55° WSW 04:26:12 82° S 04:37:27 10° E visible
24 Jan 9.5 06:19:27 12° W 06:32:16 73° SSW 06:41:24 10° ESE visible
25 Jan 10.8 01:53:45 33° E 01:53:45 33° E 01:59:43 10° E visible
25 Jan 9.6 03:51:11 72° SW 03:52:59 81° S 04:04:53 10° E visible
25 Jan 9.5 05:48:37 20° W 05:59:20 76° SSW 06:09:08 10° ESE visible
26 Jan 11.1 01:22:55 23° E 01:22:55 23° E 01:26:46 10° ENE visible
26 Jan 9.7 03:20:20 78° SE 03:20:20 78° SE 03:32:15 10° E visible
26 Jan 9.6 05:17:46 30° W 05:26:18 79° SSW 05:36:45 10° ESE visible
27 Jan 11.5 00:52:03 15° E 00:52:03 15° E 00:53:43 10° ENE visible
27 Jan 10.0 02:49:28 62° ESE 02:49:28 62° ESE 02:59:31 10° E visible
27 Jan 9.6 04:46:54 42° W 04:53:11 81° S 05:04:18 10° ESE visible
28 Jan 10.4 02:18:36 47° E 02:18:36 47° E 02:26:42 10° E visible
28 Jan 9.6 04:16:02 57° W 04:19:59 82° S 04:31:47 10° E visible
28 Jan 9.8 06:13:27 13° W 06:25:49 57° SSW 06:35:23 10° SE visible
29 Jan 10.8 01:47:44 34° E 01:47:44 34° E 01:53:48 10° E visible
29 Jan 9.6 03:45:09 75° WSW 03:46:42 83° S 03:59:09 10° E visible
29 Jan 9.7 05:42:35 21° W 05:52:54 62° SSW 06:03:09 10° SE visible
30 Jan 11.1 01:16:52 24° E 01:16:52 24° E 01:20:48 10° E visible
30 Jan 9.7 03:14:18 80° SE 03:14:18 80° SE 03:26:27 10° E visible
30 Jan 9.7 05:11:44 31° W 05:19:53 67° SSW 05:30:49 10° SE visible
31 Jan 11.5 00:46:02 15° E 00:46:02 15° E 00:47:42 10° E visible
31 Jan 10.0 02:43:27 62° E 02:43:27 62° E 02:53:39 10° E visible
31 Jan 9.7 04:40:54 43° W 04:46:46 71° SSW 04:58:23 10° ESE visible
31 Jan 10.2 06:39:41 10° W 06:51:32 36° SW 07:00:30 10° SSE visible
01 Feb 10.4 02:12:39 46° E 02:12:39 46° E 02:20:45 10° E visible
01 Feb 9.7 04:10:05 58° WSW 04:13:35 74° SSW 04:25:51 10° ESE visible
01 Feb 10.2 06:07:31 14° W 06:18:47 41° SW 06:28:31 10° SSE visible
02 Feb 10.8 01:41:52 32° E 01:41:52 32° E 01:47:45 10° E visible
02 Feb 9.7 03:39:19 74° SW 03:40:18 77° SSW 03:53:14 10° ESE visible
02 Feb 10.1 05:36:45 22° W 05:45:56 45° SW 05:56:25 10° SSE visible
